Regional Weather Roundup
Issued by NWS

Home | Current Version | Previous Version | Graphics & Text | Print | Product List | Glossary On
Versions: 1 2 3 4 5 6 7 8 9 10 11 12 13 14 15 16 17 18 19 20 21 22 23 24 25 26 27 28 29 30 31 32 33 34 35 36 37 38 39 40 41 42 43 44 45 46 47 48 49 50
042
ASUS45 KTFX 160510
RWRMT
MONTANA REGIONAL WEATHER ROUNDUP
NATIONAL WEATHER SERVICE GREAT FALLS MT
1100 PM MDT TUE AUG 15 2017

NOTE: "FAIR" INDICATES FEW OR NO CLOUDS BELOW 12000 FEET WITH NO
SIGNIFICANT WEATHER AND/OR OBSTRUCTIONS TO VISIBILITY.

MTZ001>007-043-160600-
WEST OF THE DIVIDE

CITY           SKY/WX    TMP DP  RH WIND       PRES   REMARKS
KALISPELL      CLEAR     52  43  71 CALM      29.90R
MISSOULA       CLEAR     61  35  37 CALM      29.93R
BUTTE          CLEAR     60  30  32 S6        30.05R
MULLAN PASS    CLEAR     55  27  34 NW6       30.07S
ANACONDA         N/A     55  34  44 SW7       30.02R
DEER LODGE       N/A     61  36  39 CALM      30.02R
EUREKA           N/A     64  37  36 MISG      29.89S
HAMILTON         N/A     57  43  58 S3        29.96R
LIBBY            N/A     63  37  39 S3        29.90R
RONAN            N/A     51  43  74 CALM      29.97R
$$

MTZ008-052>055-160600-
SOUTHWEST MONTANA

CITY           SKY/WX    TMP DP  RH WIND       PRES   REMARKS
BOZEMAN        CLOUDY    59  43  55 SW7       29.97R
DILLON         CLEAR     57  39  51 SE5       30.00R
W YELLOWSTONE  CLEAR     45  41  87 CALM      30.13S
ENNIS          MOCLDY    59  43  55 S10       30.07R
THREE FORKS      N/A     55  40  57 CALM      29.96R
TWIN BRIDGES     N/A     68  32  26 NE1       29.99R
$$

MTZ009-010-012-014-046-048-049-054-160600-
EAST SLOPES AND CENTRAL MONTANA

CITY           SKY/WX    TMP DP  RH WIND       PRES   REMARKS
CUT BANK       MOCLDY    62  34  35 CALM      29.93S
GREAT FALLS    CLEAR     60  30  32 NE8       29.92R
MALMSTROM AFB  CLEAR     63  30  29 CALM      29.91R
HELENA         PTCLDY    71  29  21 SW8       29.93R
AUGUSTA          N/A     58  27  30 N7        29.97R
BOWMANS CRNR     N/A     63  28  27 NE9       29.93R
CHOTEAU          N/A     59  32  36 NE10      29.96R
FAIRFIELD        N/A     59  28  30 N7        29.93R
POWER            N/A     60  31  33 E5        29.92
RAYNESFORD       N/A     60  35  39 E8        29.94S
ULM              N/A     57  28  32 SE3       29.91R
$$

MTZ011-013-016-021-045-047-050-051-160600-
NORTH CENTRAL MONTANA

CITY           SKY/WX    TMP DP  RH WIND       PRES   REMARKS
HAVRE          PTCLDY    65  38  36 CALM      29.88R
LEWISTOWN      CLEAR     56  41  57 E7        29.96R
N BAR RANCH      N/A     55  41  58 W5        30.01S
CHINOOK          N/A     61  45  55 CALM      29.88S
DENTON           N/A     60  34  38 N3        29.89S
GEYSER           N/A     60  35  39 S3        29.95R
GRASS RANGE      N/A     58  39  50 W5        29.93R
JUDITH GAP       N/A     60  40  47 E8        29.98R
WINIFRED         N/A     59  33  38 E13       29.92F
$$

MTZ017>020-022>027-061-062-160600-
NORTHEAST MONTANA

CITY           SKY/WX    TMP DP  RH WIND       PRES   REMARKS
GLASGOW        CLEAR     65  40  39 E12       29.89R
JORDAN           N/A     59  40  49 CALM      29.90S
SIDNEY         CLEAR     60  56  86 CALM      29.90R
WOLF POINT     CLEAR     63  56  78 E3        29.90R
MALTA          CLEAR     57  43  58 NE5       29.89S
PLENTYWOOD       N/A     63  48  59 NE13      29.91S
POPLAR           N/A     63  57  82 N3        29.90S
SCOBEY           N/A     55  43  64 N6        29.92R
$$

MTZ028>42-056>058-160600-
SOUTHCENTRAL AND SOUTHEAST MONTANA

CITY           SKY/WX    TMP DP  RH WIND       PRES   REMARKS
BAKER          CLEAR     57  55  93 CALM      29.93S
BILLINGS       CLEAR     70  42  36 SE7       29.93R
LIVINGSTON     CLEAR     56  39  53 W8        29.97R
MILES CITY     CLEAR     66  46  48 S3        29.89S
BIG TIMBER     CLEAR     63  37  39 CALM      29.99R
EKALAKA          N/A     55  51  86 SE3       29.94S
FORSYTH          N/A     66  46  48 CALM      29.89S
HARLOWTON        N/A     61  39  43 MISG      29.97R
LAUREL           N/A     63  41  44 CALM      29.93S
$$

REGIONAL REPORTS...DAKOTAS

CITY           SKY/WX    TMP DP  RH WIND       PRES   REMARKS
WILLISTON      CLEAR     62  59  90 CALM      29.89S
MINOT          MOCLDY    61  60  97 CALM      29.87S
DICKINSON      CLOUDY    61  61 100 NE3       29.90S
BEACH          FOG       54  54 100 CALM      29.95F VSB<1/4
CROSBY           N/A     57  59 100 W5        29.91R
TIOGA            N/A     54  54 100 S5        29.92S
WATFORD CITY     N/A     59  59 100 CALM      29.89F
BISMARCK       CLOUDY    64  63  96 NW5       29.84F
GRAND FORKS    CLOUDY    69  61  75 SE6       29.88R
FARGO          CLOUDY    68  61  78 SE7       29.87S
BUFFALO SD       N/A     59  56  89 N9        29.86R
RAPID CITY     CLOUDY    64  57  78 N15       29.93R
$$

REGIONAL REPORTS...WYOMING/IDAHO/WASHINGTON

CITY           SKY/WX    TMP DP  RH WIND       PRES   REMARKS
GILLETTE       CLEAR     51  47  86 SW5       29.98S
SHERIDAN       CLEAR     52  47  83 SW5       29.97F
BUFFALO WY     CLEAR     55  44  66 W9        30.02F
CODY           CLEAR     59  45  59 SW7       30.04R
YELLOWSTONE LA   N/A     41  39  93 CALM      30.21R
IDAHO FALLS    CLOUDY    63  46  54 SE6       30.02R
SALMON         CLEAR     66  32  28 NE5       29.95R
BOISE          CLEAR     74  42  31 CALM      29.88R
SPOKANE        CLEAR     69  32  25 SW9       29.91R
$$

REGIONAL REPORTS...ALBERTA

CITY           SKY/WX    TMP DP  RH WIND       PRES   REMARKS
EDMONTON       PTCLDY    54  45  71 W5        29.84R
CALGARY        CLOUDY    61  39  44 SE3       29.92R
LETHBRIDGE     MOCLDY    54  43  66 VRB2      29.90R
MEDICINE HAT   CLOUDY    57  45  62 SE3       29.88R
$$

REGIONAL REPORTS...SASKATCHEWAN

CITY           SKY/WX    TMP DP  RH WIND       PRES   REMARKS
SWIFT CURRENT  CLEAR     54  39  58 S6        29.90S
REGINA         CLEAR     57  46  67 CALM      29.89F
SASKATOON      CLEAR     52  48  87 SW9       29.84S
$$




USA.gov is the U.S. government's official web portal to all federal, state and local government web resources and services.